| time (UTC) | temp C | wind direction | speed KPH | gust KPH | rain 1hr cm | rain 24hr cm | rain mn cm | humidity % | barometer mb |
| 20260508181540 | 25 | 80 | 0.0 | 9.7 | 0.00 | 1.75 | 1.75 | 61 | 1011.1 |
| 20260508180038 | 25 | 85 | 1.6 | 8.0 | 0.00 | 1.75 | 1.75 | 62 | 1011.7 |
| 20260508174539 | 25 | 113 | 1.6 | 9.7 | 0.00 | 1.75 | 1.75 | 62 | 1011.8 |
| 20260508173035 | 24 | 97 | 0.0 | 12.9 | 0.00 | 1.75 | 1.75 | 63 | 1011.9 |
| 20260508171536 | 23 | 136 | 0.0 | 6.4 | 0.00 | 1.75 | 1.75 | 66 | 1012.1 |
| 20260508170033 | 22 | 184 | 0.0 | 8.0 | 0.00 | 1.75 | 1.75 | 71 | 1012.2 |
| 20260508164533 | 21 | 162 | 1.6 | 11.3 | 0.00 | 1.75 | 1.75 | 74 | 1012.5 |
| 20260508163036 | 20 | 155 | 0.0 | 4.8 | 0.00 | 1.75 | 1.75 | 82 | 1013.0 |
| 20260508161535 | 18 | 70 | 1.6 | 9.7 | 0.00 | 1.75 | 1.75 | 87 | 1013.3 |
| 20260508160036 | 18 | 0 | 0.0 | 4.8 | 0.00 | 1.75 | 1.75 | 88 | 1013.4 |
| 20260508154538 | 17 | 0 | 0.0 | 3.2 | 0.00 | 1.75 | 1.75 | 88 | 1013.5 |
| 20260508153036 | 17 | 0 | 0.0 | 1.6 | 0.00 | 1.75 | 1.75 | 88 | 1013.6 |
| 20260508151533 | 17 | 0 | 0.0 | 1.6 | 0.00 | 1.75 | 1.75 | 88 | 1013.7 |
| 20260508150032 | 17 | 0 | 0.0 | 0.0 | 0.00 | 1.75 | 1.75 | 89 | 1014.1 |
| 20260508144537 | 16 | 0 | 0.0 | 1.6 | 0.00 | 1.75 | 1.75 | 88 | 1014.0 |
| 20260508143034 | 16 | 0 | 0.0 | 0.0 | 0.00 | 1.75 | 1.75 | 88 | 1014.1 |
| 20260508141533 | 16 | 0 | 0.0 | 1.6 | 0.00 | 1.75 | 1.75 | 88 | 1014.2 |
| 20260508140032 | 16 | 0 | 0.0 | 3.2 | 0.00 | 1.75 | 1.75 | 88 | 1014.2 |
| 20260508134535 | 16 | 0 | 0.0 | 3.2 | 0.00 | 1.75 | 1.75 | 88 | 1014.0 |
| 20260508133039 | 16 | 0 | 0.0 | 4.8 | 0.00 | 1.75 | 1.75 | 88 | 1013.9 |
| 20260508131539 | 15 | 0 | 0.0 | 3.2 | 0.10 | 1.75 | 1.75 | 88 | 1013.9 |
| 20260508130036 | 15 | 0 | 0.0 | 1.6 | 0.43 | 1.75 | 1.75 | 88 | 1014.0 |
| 20260508124538 | 15 | 0 | 0.0 | 0.0 | 0.51 | 1.75 | 1.75 | 88 | 1014.3 |
| 20260508123038 | 15 | 0 | 0.0 | 1.6 | 0.51 | 1.75 | 1.75 | 88 | 1014.0 |
| 20260508121542 | 15 | 0 | 0.0 | 3.2 | 0.41 | 1.65 | 1.65 | 88 | 1014.3 |
| 20260508120042 | 15 | 0 | 0.0 | 1.6 | 0.05 | 1.30 | 1.30 | 88 | 1014.5 |
| 20260508114541 | 15 | 0 | 0.0 | 3.2 | 0.00 | 1.24 | 1.24 | 88 | 1014.0 |
| 20260508113041 | 15 | 0 | 0.0 | 0.0 | 0.08 | 1.24 | 1.24 | 88 | 1014.4 |
| 20260508111542 | 15 | 0 | 0.0 | 1.6 | 0.25 | 1.24 | 1.24 | 88 | 1014.1 |
| 20260508110033 | 15 | 0 | 0.0 | 0.0 | 0.25 | 1.24 | 1.24 | 88 | 1014.0 |
| 20260508104538 | 15 | 0 | 0.0 | 0.0 | 0.28 | 1.24 | 1.24 | 88 | 1013.7 |
| 20260508103035 | 15 | 0 | 0.0 | 1.6 | 0.43 | 1.17 | 1.17 | 88 | 1013.9 |
| 20260508101536 | 15 | 0 | 0.0 | 1.6 | 0.25 | 0.99 | 0.99 | 88 | 1014.6 |
| 20260508100032 | 15 | 0 | 0.0 | 1.6 | 0.25 | 0.99 | 0.99 | 87 | 1013.7 |
| 20260508094531 | 15 | 0 | 0.0 | 1.6 | 0.23 | 0.97 | 0.97 | 87 | 1013.6 |
| 20260508093033 | 15 | 127 | 0.0 | 1.6 | 0.00 | 0.74 | 0.74 | 87 | 1013.5 |
| 20260508091544 | 15 | 0 | 0.0 | 0.0 | 0.00 | 0.74 | 0.74 | 87 | 1013.4 |
| 20260508090035 | 15 | 0 | 0.0 | 0.0 | 0.00 | 0.74 | 0.74 | 87 | 1013.8 |
| 20260508084532 | 15 | 0 | 0.0 | 0.0 | 0.00 | 0.74 | 0.74 | 86 | 1013.7 |
| 20260508083037 | 15 | 0 | 0.0 | 0.0 | 0.00 | 0.74 | 0.74 | 86 | 1014.1 |
| 20260508081544 | 15 | 0 | 0.0 | 0.0 | 0.53 | 0.74 | 0.74 | 83 | 1014.5 |
| 20260508080034 | 15 | 0 | 0.0 | 1.6 | 0.74 | 0.74 | 0.74 | 76 | 1013.9 |
| 20260508074534 | 15 | 0 | 0.0 | 0.0 | 0.74 | 0.74 | 0.74 | 72 | 1014.2 |
| 20260508073034 | 16 | 0 | 0.0 | 0.0 | 0.74 | 0.74 | 0.74 | 68 | 1015.4 |
| 20260508071536 | 16 | 0 | 0.0 | 0.0 | 0.15 | 0.15 | 0.15 | 63 | 1015.8 |
| 20260508070036 | 16 | 0 | 0.0 | 0.0 | 0.00 | 0.00 | 0.00 | 62 | 1014.9 |
| 20260508064536 | 16 | 0 | 0.0 | 0.0 | 0.00 | 0.00 | 0.00 | 63 | 1014.6 |
| 20260508063039 | 16 | 0 | 0.0 | 0.0 | 0.00 | 0.00 | 0.00 | 63 | 1015.3 |
| 20260508061539 | 16 | 0 | 0.0 | 0.0 | 0.00 | 0.00 | 0.00 | 64 | 1015.2 |
| 20260508060038 | 15 | 0 | 0.0 | 0.0 | 0.00 | 0.00 | 0.00 | 64 | 1015.4 |
| 20260508054541 | 15 | 0 | 0.0 | 0.0 | 0.00 | 0.00 | 0.00 | 64 | 1015.3 |
| 20260508053036 | 15 | 0 | 0.0 | 0.0 | 0.00 | 0.00 | 0.00 | 64 | 1015.2 |
| 20260508051538 | 15 | 0 | 0.0 | 0.0 | 0.00 | 0.00 | 0.00 | 63 | 1015.3 |
| 20260508050039 | 15 | 0 | 0.0 | 0.0 | 0.00 | 0.00 | 0.00 | 62 | 1015.4 |
| 20260508044538 | 15 | 0 | 0.0 | 0.0 | 0.00 | 0.00 | 0.00 | 62 | 1015.5 |
| 20260508043034 | 15 | 0 | 0.0 | 0.0 | 0.00 | 0.00 | 0.00 | 61 | 1015.3 |
| 20260508041539 | 15 | 0 | 0.0 | 0.0 | 0.00 | 0.00 | 0.00 | 61 | 1015.3 |
| 20260508040037 | 15 | 0 | 0.0 | 0.0 | 0.00 | 0.00 | 0.00 | 60 | 1015.3 |
| 20260508034536 | 15 | 0 | 0.0 | 0.0 | 0.00 | 0.00 | 0.00 | 58 | 1015.3 |
| 20260508033039 | 16 | 0 | 0.0 | 0.0 | 0.00 | 0.00 | 0.00 | 57 | 1015.1 |
| 20260508031532 | 16 | 0 | 0.0 | 0.0 | 0.00 | 0.00 | 0.00 | 56 | 1015.1 |
| 20260508030032 | 16 | 0 | 0.0 | 0.0 | 0.00 | 0.00 | 0.00 | 56 | 1015.1 |
| 20260508024535 | 16 | 0 | 0.0 | 0.0 | 0.00 | 0.00 | 0.00 | 53 | 1014.8 |
| 20260508023035 | 17 | 0 | 0.0 | 0.0 | 0.00 | 0.00 | 0.00 | 51 | 1014.7 |
| 20260508021534 | 17 | 0 | 0.0 | 3.2 | 0.00 | 0.00 | 0.00 | 50 | 1014.7 |
| 20260508020037 | 18 | 0 | 0.0 | 0.0 | 0.00 | 0.00 | 0.00 | 50 | 1014.4 |
| 20260508014534 | 18 | 88 | 0.0 | 3.2 | 0.00 | 0.00 | 0.00 | 48 | 1014.5 |
| 20260508013038 | 18 | 0 | 0.0 | 1.6 | 0.00 | 0.00 | 0.00 | 47 | 1014.4 |
| 20260508011535 | 19 | 85 | 0.0 | 3.2 | 0.00 | 0.00 | 0.00 | 46 | 1014.4 |
| 20260508010035 | 19 | 0 | 0.0 | 4.8 | 0.00 | 0.00 | 0.00 | 45 | 1014.6 |
| 20260508004538 | 20 | 94 | 1.6 | 6.4 | 0.00 | 0.00 | 0.00 | 43 | 1014.3 |
| 20260508003033 | 20 | 86 | 1.6 | 6.4 | 0.00 | 0.00 | 0.00 | 44 | 1014.4 |
| 20260508001533 | 21 | 0 | 0.0 | 6.4 | 0.00 | 0.00 | 0.00 | 42 | 1014.4 |
| 20260508000037 | 21 | 0 | 0.0 | 4.8 | 0.00 | 0.00 | 0.00 | 41 | 1014.7 |
| 20260507234545 | 22 | 0 | 1.6 | 4.8 | 0.00 | 0.00 | 0.00 | 39 | 1014.6 |
| 20260507233038 | 22 | 0 | 0.0 | 0.0 | 0.00 | 0.00 | 0.00 | 40 | 1014.6 |
| 20260507231540 | 22 | 0 | 0.0 | 0.0 | 0.00 | 0.00 | 0.00 | 41 | 1014.5 |
| 20260507230037 | 22 | 0 | 0.0 | 0.0 | 0.00 | 0.00 | 0.00 | 41 | 1014.7 |
| 20260507224535 | 22 | 0 | 0.0 | 0.0 | 0.00 | 0.00 | 0.00 | 42 | 1014.9 |
| 20260507223032 | 22 | 0 | 0.0 | 0.0 | 0.00 | 0.00 | 0.00 | 41 | 1014.9 |
| 20260507221538 | 22 | 0 | 0.0 | 0.0 | 0.00 | 0.00 | 0.00 | 38 | 1015.0 |
| 20260507220038 | 22 | 0 | 0.0 | 0.0 | 0.00 | 0.00 | 0.00 | 33 | 1015.1 |
| 20260507214535 | 22 | 0 | 0.0 | 1.6 | 0.00 | 0.00 | 0.00 | 33 | 1015.2 |
| 20260507213043 | 23 | 0 | 0.0 | 1.6 | 0.00 | 0.00 | 0.00 | 33 | 1015.3 |
| 20260507211534 | 23 | 0 | 0.0 | 1.6 | 0.00 | 0.00 | 0.00 | 31 | 1015.4 |
| 20260507210035 | 23 | 0 | 0.0 | 3.2 | 0.00 | 0.00 | 0.00 | 33 | 1015.6 |
| 20260507204537 | 23 | 166 | 0.0 | 3.2 | 0.00 | 0.00 | 0.00 | 31 | 1015.6 |
| 20260507203032 | 23 | 181 | 0.0 | 4.8 | 0.00 | 0.00 | 0.00 | 32 | 1015.5 |
| 20260507201539 | 24 | 0 | 0.0 | 3.2 | 0.00 | 0.00 | 0.00 | 31 | 1015.9 |
| 20260507200034 | 24 | 150 | 0.0 | 3.2 | 0.00 | 0.00 | 0.00 | 33 | 1016.0 |
| 20260507194536 | 23 | 134 | 0.0 | 4.8 | 0.00 | 0.00 | 0.00 | 34 | 1016.2 |
| 20260507193034 | 22 | 0 | 0.0 | 4.8 | 0.00 | 0.00 | 0.00 | 32 | 1016.5 |
| 20260507191534 | 22 | 174 | 1.6 | 6.4 | 0.00 | 0.00 | 0.00 | 32 | 1016.7 |
| 20260507190034 | 22 | 0 | 1.6 | 4.8 | 0.00 | 0.00 | 0.00 | 35 | 1017.0 |
| 20260507184537 | 22 | 154 | 0.0 | 8.0 | 0.00 | 0.00 | 0.00 | 38 | 1017.1 |
| 20260507183042 | 21 | 107 | 1.6 | 6.4 | 0.00 | 0.00 | 0.00 | 36 | 1017.3 |